Location: Horse Creek
(39.8908°N, 99.6943°W)
Time: 11:06:32
(UTC+00:00)

Daily predictions for brighter satellites

Satellite Brightness Start Highest point End
(mag) Time Altitude Azimuth Time Altitude Azimuth Time Altitude Azimuth
STARLINK 1060 3.5 12:05:22 55° N 12:05:22 55° N 12:08:44 10° NE
Cosmos 2154 Rocket 4.4 12:07:33 36° W 12:07:33 36° W 12:13:05 10° SSW
SL-4 R/B 3.1 12:09:03 25° SSW 12:09:03 25° SSW 12:11:08 10° SSE
STARLINK 1030 3.5 12:08:35 54° NNW 12:08:35 54° NNW 12:12:04 10° NE
CZ-4B R/B 3.9 12:04:45 10° NNE 12:10:10 56° E 12:15:27 10° S
Meteor 1-16 Rocket 4.3 12:05:47 10° SSW 12:11:37 62° W 12:17:24 10° N
STARLINK 1020 3.5 12:11:50 51° NNW 12:11:50 51° NNW 12:15:27 10° NE
Cosmos 1959 Rocket 4.5 12:07:19 10° N 12:13:29 83° E 12:19:40 10° S
USA 116 4.1 12:10:06 10° SSE 12:14:46 77° ENE 12:18:54 10° N
STARLINK 1034 3.6 12:15:05 48° NW 12:15:10 48° NW 12:18:49 10° NE
ALOS 2.2 12:12:16 10° N 12:16:53 62° WNW 12:21:28 10° SSW
Cosmos 1703 3.1 12:15:00 16° NNW 12:18:02 76° W 12:21:56 10° S
Cosmos 2056 Rocket 4.0 12:13:26 10° NNW 12:18:50 62° ENE 12:24:10 10° SSE
STARLINK 1033 3.7 12:21:37 41° NW 12:22:00 43° NW 12:25:36 10° NE
STARLINK 1029 4.1 12:23:55 29° NNW 12:23:55 29° NNW 12:26:16 10° NNE
SKYMED 2 3.9 12:23:12 10° S 12:27:18 41° W 12:29:52 20° NW
SJ-12 4.3 12:23:51 10° N 12:27:39 39° WNW 12:31:27 10° SW
Cosmos 1953 Rocket 3.8 12:24:41 15° NNW 12:28:05 46° W 12:32:14 10° SSW
Cosmos 2366 rocket 4.0 12:22:52 10° N 12:29:14 78° W 12:35:34 10° S
STARLINK 1050 4.4 12:26:17 10° SSW 12:30:19 53° SE 12:34:22 10° ENE
BREEZE-M DEB (TANK) 4.0 12:28:42 22° NW 12:30:56 34° N 12:40:56 10° ENE
PAYLOAD B 4.2 12:25:27 10° N 12:31:02 71° WNW 12:36:36 10° SSW
Lacrosse 5 rocket 4.0 12:33:02 10° N 12:34:22 11° NNE 12:35:41 10° NNE
STARLINK 1055 4.2 12:31:12 10° SW 12:35:15 58° SE 12:39:20 10° ENE
STARLINK 1022 4.0 12:36:08 10° SW 12:40:13 65° SE 12:44:20 10° NE
Lacrosse 5 2.1 12:39:02 16° WSW 12:42:56 49° NW 12:47:52 10° NE
STARLINK 1042 3.8 12:41:06 10° SW 12:45:12 72° SE 12:49:21 10° NE
STARLINK 1044 4.4 12:44:51 22° WNW 12:46:16 29° NNW 12:49:36 10° NNE
Meteor 1-11 4.3 12:42:29 10° NNW 12:47:59 59° W 12:53:32 10° S
STARLINK 1035 4.5 12:48:54 20° WNW 12:50:07 24° NNW 12:53:03 10° NNE
STARLINK 1056 3.7 12:46:00 10° SW 12:50:08 79° SE 12:54:18 10° NE
Cosmos 158 Rocket 4.3 12:45:57 10° SW 12:50:28 38° WNW 12:55:05 10° N
Helios 1A Rocket 2.9 12:46:25 10° N 12:50:32 67° WNW 12:54:38 10° SSW
Alouette 2 Rocket 3.8 12:46:44 10° S 12:51:30 71° E 12:55:11 10° NNE
SJ-7 4.5 12:47:29 10° N 12:51:35 58° WNW 12:55:44 10° SSW
STARLINK-60 3.1 12:50:06 17° NW 12:52:32 76° NE 12:55:52 10° SE
Abrixas rocket 3.3 12:53:08 19° W 12:54:31 26° SW 12:57:07 10° SSE
STARLINK 1054 3.6 12:50:59 10° SW 12:55:06 86° SE 12:59:16 10° NE
Cosmos 2322 Rocket 2.6 12:50:43 10° SW 12:56:01 40° WNW 13:01:22 10° N
Milstar 3 Cent rocket 4.5 12:42:51 10° WSW 12:56:21 41° S 13:03:14 10° ESE
ATLAS 3B R/B 2.8 12:49:57 10° NW 12:56:36 62° WSW 13:03:28 10° SSE
Okean O Rocket 1.9 12:53:33 10° N 12:57:46 43° WNW 13:01:56 10° SW
STARLINK 1062 3.6 12:55:55 10° SW 13:00:03 87° NW 13:04:13 10° NE
Envisat 4.2 12:55:47 10° NNE 13:00:42 47° E 13:05:34 10° S
Cosmos 1452 Rocket 4.4 12:55:57 10° N 13:01:06 52° ENE 13:06:12 10° SE
ADEOS Rocket 2.7 12:55:47 10° S 13:01:15 81° WSW 13:06:59 10° NNW
Cosmos 2263 Rocket 3.0 12:57:49 10° NW 13:02:38 29° WSW 13:07:27 10° SSW
Cosmos 2058 Rocket 4.0 12:59:14 10° SW 13:02:51 25° WNW 13:06:28 10° NNW
ATLAS 2A CENTAUR R/B 4.1 12:59:43 10° SSW 13:03:17 23° SSE 13:11:49 10° ESE
Okean-O 4.3 12:59:55 10° NNE 13:04:05 38° E 13:08:12 10° SSE
STARLINK 1053 3.5 13:00:56 10° SW 13:05:04 79° NW 13:09:13 10° NE
USA 215 3.3 12:58:37 10° SE 13:05:09 80° SW 13:11:43 10° NW
NOSS 3-4 (A) 4.4 13:03:35 10° W 13:08:32 26° NW 13:13:46 10° NNE
NOSS 3-4 (C) 4.4 13:03:40 10° W 13:08:38 26° NW 13:13:53 10° NNE
CZ-4 R/B 4.3 13:05:22 10° NE 13:08:46 23° E 13:12:08 10° SSE
STARLINK 1061 3.6 13:05:55 10° WSW 13:10:03 73° NW 13:14:12 10° NE
Cosmos 1300 2.9 13:09:01 10° SSW 13:12:40 45° W 13:16:22 10° N
Iridium 96 3.5 13:10:39 10° S 13:13:11 89° NW 13:15:35 10° N
Cosmos 2333 Rocket 3.3 13:07:44 10° S 13:13:17 50° ESE 13:18:50 10° NNE
SMAP 3.0 13:08:53 10° N 13:13:33 75° WNW 13:18:11 10° SSW
Cosmos 1844 Rocket 3.0 13:09:10 10° NNW 13:14:49 71° ENE 13:20:27 10° SSE
STARLINK 1067 3.6 13:10:55 10° WSW 13:15:01 66° NW 13:19:10 10° NE
COSMO-SKYMED 1 4.4 13:13:54 10° WSW 13:15:43 12° W 13:17:34 10° WNW
H-2A R/B 2.9 13:12:00 10° N 13:15:47 51° WNW 13:19:31 10° SSW
CENTAUR R/B 3.8 13:09:09 10° NW 13:16:35 37° WSW 13:24:20 10° S
Feng Yun 1-1 Rocket 4.5 13:12:08 10° NNE 13:18:05 88° ESE 13:23:53 10° SSW
BREEZE-M DEB (TANK) 4.5 13:11:46 10° W 13:19:41 30° NNW 13:23:30 10° NE
STARLINK 1058 3.7 13:15:52 10° WSW 13:19:57 61° NW 13:24:05 10° NE
BREEZE M DEB (TANK) 4.5 13:19:11 10° WNW 13:21:58 28° N 13:28:12 10° ENE
Cosmos 1076 Rocket 3.5 13:18:29 10° N 13:22:52 79° W 13:27:13 10° S
RESURS DK-1 3.5 13:20:50 10° WSW 13:24:13 24° WNW 13:27:37 10° N
STARLINK 1043 3.7 13:20:55 10° WSW 13:24:58 56° NW 13:29:04 10° NE
